109  
ASUS43 KFGF 191931  
RWRFGF  
PRAIRIE TO PINES WEATHER ROUNDUP  
NATIONAL WEATHER SERVICE EASTERN NORTH DAKOTA/GRAND FORKS ND  
200 PM CDT TUE MAR 19 2019  
 
**SATELLITE DATA USED TO AUGMENT SKY COVER AT AUTOMATED STATIONS**  
***** WEATHER ACROSS EASTERN NORTH DAKOTA *****  
 
CITY SKY/WX TMP DP RH WIND PRES REMARKS
 
GRAND FORKS CLOUDY 34 29 82 SW7 30.13F  
GRAND FRKS AFB FAIR 39 30 70 W9 30.13F  
GRAND FRKS NWS N/A 36 32 84 SW12 30.08F  
DEVILS LAKE FAIR 30 30 100 SW13 30.13F WCI 20  
FARGO FAIR 34 31 88 SW10 30.17F FOG  
WAHPETON ARPT FAIR 32 28 86 W9 30.20F WCI 24  

 
 
***** WEATHER ACROSS CENTRAL AND WESTERN NORTH DAKOTA *****  
 
CITY SKY/WX TMP DP RH WIND PRES REMARKS
 
BISMARCK FAIR 40 29 64 NW10 30.24R  
MINOT FAIR 39 28 64 W17 30.16F  
JAMESTOWN FAIR 34 30 85 W13 30.17F WCI 25  
MINOT AFB FAIR 37 30 75 W9 30.14F  
GARRISON N/A 38 30 73 W14 30.19F  
WILLISTON FAIR 37 28 70 W7 30.23F  
DICKINSON FAIR 37 29 72 W15 30.22S  
HETTINGER FAIR 33 28 81 W13 30.27R WCI 24  

 
 
***** OTHER AIRPORT OBSERVATIONS IN OUR AREA *****  
 
CITY SKY/WX TMP DP RH WIND PRES REMARKS
 
WALHALLA FAIR 39 30 70 W9 30.05F  
GRAFTON AIRPOR FAIR 34 30 86 SW12 30.10F  
VALLEY CITY AR N/A N/A N/A N/A MISG N/A  
CANDO FAIR 34 34 100 W15 30.12F WCI 24  
CAVALIER APRT FAIR 39 30 70 W14 30.05F  
GWINNER FOG 30 30 100 SW14 30.19F VSB 1/4 WCI 20  
SHEYENNE NWR N/A 33 29 85 W8 29.95S  
ROLLA FAIR 37 28 70 SW13 30.06F  
***** THE ABOVE OBSERVATIONS ARE NON NWS ARE NOT QUALITY  
CONTROLLED AND MAY MIS-REPORT RAIN FOR SNOW...  

 
 
***** WEATHER ACROSS NORTHERN MINNESOTA *****  
 
CITY SKY/WX TMP DP RH WIND PRES REMARKS
 
FLAG ISLAND FAIR 37 30 75 S5 30.00F  
WARROAD FAIR 39 34 81 SW10 30.04F  
ROSEAU N/A 37 32 81 SW14 30.05F  
HALLOCK FAIR 32 30 93 S10 30.07F WCI 24  
THF RVR FALLS FAIR 37 30 75 SW14 30.12F  
BAUDETTE FAIR 37 30 75 SW10 30.04F  
WASKISH CLOUDY 34 32 93 SW9 30.09F  
CROOKSTON FAIR 34 30 86 SW12 30.14F  
STEPHEN NDAWN N/A 30 27 86 SW12 N/A WCI 21  
GREENBUSH NDAW N/A 36 30 80 SW15 N/A  

 
***** WEATHER ACROSS CENTRAL AND WEST MINNESOTA *****  
 
CITY SKY/WX TMP DP RH WIND PRES REMARKS
 
FOSSTON FAIR 37 30 75 SW9 30.13F  
BEMIDJI FAIR 41 30 65 W9 30.09F  
PARK RAPIDS FAIR 40 30 67 MISG 30.11F  
ELBOW LAKE FAIR 33 30 88 SW3 30.20S  
WADENA FAIR 39 28 65 SW7 30.14F  
DETROIT LAKES FAIR 37 32 81 SW9 30.14F  
MOORHEAD FAIR 34 28 80 SW9 30.17F  
FERGUS FALLS FAIR 34 28 80 SW6 30.17F  
MORRIS MN FAIR 39 28 65 W5 30.15F  
STAPLES FAIR 39 28 65 SW8 30.15F  

 
***** WEATHER ELSEWHERE ACROSS MINNESOTA *****  
 
CITY SKY/WX TMP DP RH WIND PRES REMARKS
 
DULUTH FAIR 41 27 57 SW13 30.11F  
INTRNTL FALLS CLOUDY 37 30 75 SW10 30.05F  
ELY FAIR 43 25 49 SW14G20 30.04F  
CLOQUET FAIR 39 25 56 S12 30.11F  
WHEATON FAIR 36 28 75 W7 30.23S  
BRAINERD CLOUDY 41 26 55 SW8 30.16F  
HIBBING FAIR 42 25 50 S9 30.08F  
ALEXANDRIA FAIR 41 30 65 W6 30.18F  
SAINT CLOUD PTSUNNY 39 29 67 S7 30.19S  
MINNEAPOLIS FAIR 45 28 51 SW12 30.21F  

 
 
***** WEATHER ACROSS SOUTH DAKOTA *****  
 
CITY SKY/WX TMP DP RH WIND PRES REMARKS
 
SIOUX FALLS FAIR 49 35 58 NW7 30.21F  
BROOKINGS FAIR 41 32 70 NW7 30.21S  
WATERTOWN FAIR 36 30 79 W3 30.20R  
HURON PTSUNNY 32 29 88 NW14 30.24S FOG WCI 22  
SISSETON N/A 41 33 73 CALM 30.19F  
ABERDEEN FAIR 36 29 75 W6 30.24F  
MITCHELL FAIR 40 32 73 NW8 30.25S  
PIERRE CLOUDY 35 31 85 NW14 30.27R  
MOBRIDGE FAIR 36 30 79 NW13 30.23S  
RAPID CITY FAIR 41 29 62 N21 30.26R  

 
 
***** SOME WEATHER IN NEARBY STATES *****  
 
CITY SKY/WX TMP DP RH WIND PRES REMARKS
 
GLASGOW MT FAIR 37 28 70 W3 30.25F  
GREAT FALLS MT FAIR 36 27 69 SW7 30.28R  
CHEYENNE WY FAIR 36 20 52 NW13 30.24S  
SCOTTSBLUFF NE CLOUDY 43 25 49 NW16G24 30.25S  
OMAHA NE LGT RAIN 41 37 86 SE3 30.27S FOG  
DES MOINES IA CLOUDY 50 25 37 S9 30.28F  
DAVENPORT IA FAIR 49 30 48 S13 30.36F  
CHICAGO IL FAIR 48 21 34 SW10 30.36F  
EAU CLAIRE WI FAIR 44 24 45 S15 30.22F  
LA CROSSE WI FAIR 48 29 47 SW18 30.29F  

 
 
***** SOME NATIONAL WEATHER *****  
 
CITY SKY/WX TMP DP RH WIND PRES REMARKS
 
LA GUARDIA NY PTSUNNY 48 13 24 NW12 30.37F  
RALEIGH NC FAIR 52 25 35 VRB5 30.37F  
ATLANTA GA PTSUNNY 55 22 27 NE12 30.33F  
NEW ORLEANS LA FAIR 63 30 28 NE9 30.27F  
OKLAHOMA CITY FAIR 67 33 28 S21G31 30.18F  
ALBUQUERQUE NM FAIR 58 31 35 VRB5 30.15F  
SALT LAKE CITY FAIR 53 30 41 NW8 30.24F  
LOS ANGELES CA PTSUNNY 63 54 72 W8 29.98F FOG  
BOISE ID FAIR 58 26 29 SE8 30.25F  
SEATTLE WA FAIR 74 25 16 E17G33 30.04F  

 
 
*** WEATHER ACROSS MANITOBA...SASKATCHEWAN AND ONTARIO ***  
***ONTARIO***  
 
CITY SKY/WX TMP DP RH WIND PRES REMARKS
 
GERALDTON CLOUDY 39 23 52 SW17G25 29.99F  
THUNDER BAY MOSUNNY 43 23 45 S13 30.03F  
SIOUX LOOKOUT PTSUNNY 36 27 69 W9 29.96F  
TORONTO PTSUNNY 43 19 39 W13G20 30.34F  
BIG TROUT LK MIX PCPN 37 25 60 SW13G21 29.75F  
PICKLE LAKE CLOUDY 36 23 60 SW6 29.87F  
DRYDEN MOSUNNY 34 27 75 SW15 29.97F WCI 24  
KENORA CLOUDY 36 28 75 SW12G17 29.98F  

 
*** MANITOBA***  
 
CITY SKY/WX TMP DP RH WIND PRES REMARKS
 
BRANDON PTSUNNY 37 28 70 SW14G21 30.02F  
DAUPHIN SUNNY 43 28 56 W30G37 29.87F  
ISLAND LAKE PTSUNNY 41 27 56 SW12G22 29.65F  
PILOT MOUND N/A 37 28 70 SW13 N/A  
THE PAS SUNNY 48 30 49 W16G22 29.78F  
THOMPSON MOSUNNY 46 28 49 NW17G29 29.68R  
WINNIPEG CLOUDY 37 28 70 SW15 30.01F  
LYNN LAKE SUNNY 43 28 56 N17G28 29.80R  
CHURCHILL PTSUNNY 25 23 93 N9 29.72R WCI 15  
GILLAM CLOUDY 39 28 65 W9 29.62R  

 
***SASKATCHEWAN***  
 
CITY SKY/WX TMP DP RH WIND PRES REMARKS
 
ESTEVAN SUNNY 39 32 75 SW16G22 30.13F  
KINDERSLEY SUNNY 46 37 71 W14G21 30.13  
LLOYDMINSTER MOSUNNY 43 28 56 NW10 30.08R  
PRINCE ALBERT PTSUNNY 46 30 53 NW13 29.99F  
REGINA MOSUNNY 39 34 81 W13 30.07F  
YORKTON SUNNY 41 30 65 W15G22 29.94F  
N. BATTLEFORD SUNNY 45 28 53 W10 30.08F  
LA RONGE MOSUNNY 48 30 49 W13 29.95R  
SASKATOON MOSUNNY 43 34 70 W8 30.06S  
SWIFT CURRENT MOSUNNY 46 32 57 W16 30.14F  

 
NOTE: THESE ARE AUTOMATED STATIONS WITH LIMITED QUALITY CONTROL  
"FAIR" INDICATES FEW OR NO CLOUDS BELOW 12,000 FEET WITH NO  
SIGNIFICANT WEATHER AND/OR S TO VISIBILITY
.  
SKY/WX - SKY CONDITION AND SIGNIFICANT WEATHER.  
TMP - AIR TEMPERATURE. DP - DEWPOINT TEMPERATURE.  
RH - RELATIVE HUMIDITY. PRES - PRESSURE.  
HX - HEAT INDEX. WCI - WIND CHILL INDEX.  
$  
 
 
CLICK HERE TO GO TO PREVIOUS BULLETINS.

The Nexlab ND Page
The Nexlab MN Page Main Text Page